Volk, WI

12:36 AM CDT on August 22, 2019 (GMT -0500)
Volk

Weather History for KVOK - July, 2019

Change the Weather History Date:

Tuesday, July 23, 2019

  Actual Average Record
Temperature  
Mean Temperature 70 °F -  
Max Temperature 80 °F 78 °F 97 °F (2012)
Min Temperature 58 °F 63 °F 47 °F (2013)
Cooling Degree Days 4    
Growing Degree Days 20 (Base 50)    
Moisture  
Dew Point 62 °F    
Average Humidity 75    
Maximum Humidity 100    
Minimum Humidity 51    
Precipitation  
Precipitation 0.00 in - - ()
Sea Level Pressure  
Sea Level Pressure 30.14 in    
Wind  
Wind Speed 9 mph (NW)    
Max Wind Speed 26 mph    
Max Gust Speed 33 mph    
Visibility 10 miles    
Events Rain , Thunderstorm    
Averages and records for this station are not official NWS values.
T = Trace of Precipitation, MM = Missing Value Source: NWS Daily Summary

Daily Weather History Graph

Daily Weather History Graph

Search for Another Location

Airport or City:

Astronomy

Jul. 23, 2019 Rise Set
Actual Time 5:39 AM CDT 8:34 PM CDT
Civil Twilight 5:05 AM CDT 9:08 PM CDT
Nautical Twilight 4:22 AM CDT 9:51 PM CDT
Astronomical Twilight 3:31 AM CDT 10:42 PM CDT
Moon No Moon Rise 12:05 PM CDT (7/23)
Length of Visible Light 16h 02m
Length of Day
14h 54m
Waning Gibbous, 63% of the Moon is Illuminated
Jul 23
Waning Gibbous
Jul 24
Last Quarter
Jul 31
New
Aug 7
First Quarter
Aug 15
Full

Hourly Weather History & Observations

Time (CDT) Temp. Heat Index Dew Point Humidity Pressure Visibility Wind Dir Wind Speed Gust Speed Precip Events Conditions
6:56 AM 62.6 °F - 55.4 °F 77% 30.15 in 10.0 mi WNW 6.9 mph - N/A   Clear
7:56 AM 66.2 °F - 59.0 °F 78% 30.18 in 10.0 mi West 10.4 mph - N/A   Clear
8:56 AM - - - N/A% 30.18 in 10.0 mi WNW 9.2 mph - N/A   Clear
9:56 AM 71.6 °F - 62.6 °F 73% 30.18 in 10.0 mi WNW 9.2 mph - N/A   Clear
10:56 AM 74.3 °F - 60.4 °F 62% 30.18 in 10.0 mi NW 8.1 mph - N/A   Clear
11:56 AM 75.2 °F - 59.0 °F 57% 30.17 in 10.0 mi NW 11.5 mph - N/A   Partly Cloudy
12:56 PM 77.0 °F - 59.0 °F 54% 30.16 in 10.0 mi NW 11.5 mph - N/A   Partly Cloudy
1:56 PM 78.8 °F - 60.8 °F 54% 30.15 in 10.0 mi WNW 10.4 mph 19.6 mph N/A   Scattered Clouds
2:56 PM 80.6 °F 81.5 °F 60.8 °F 51% 30.14 in 10.0 mi NNW 10.4 mph - N/A   Mostly Cloudy
3:48 PM 80.6 °F 81.5 °F 60.8 °F 51% 30.13 in 10.0 mi NW 11.5 mph - N/A Thunderstorm Thunderstorm
3:56 PM 80.6 °F 81.5 °F 60.8 °F 51% 30.12 in 10.0 mi NNW 9.2 mph - N/A Thunderstorm Mostly Cloudy
4:04 PM 78.8 °F - 60.8 °F 54% 30.13 in 10.0 mi NNW 20.7 mph 33.4 mph N/A Thunderstorm Thunderstorm
4:06 PM 78.8 °F - 60.8 °F 54% 30.14 in 10.0 mi NNW 26.5 mph 33.4 mph N/A Rain , Thunderstorm Light Thunderstorms and Rain
4:21 PM 68.0 °F - 64.4 °F 88% 30.15 in 10.0 mi North 5.8 mph - N/A Thunderstorm Thunderstorm
4:41 PM 69.8 °F - 64.4 °F 83% 30.13 in 10.0 mi North 3.5 mph - N/A Thunderstorm Mostly Cloudy
4:56 PM 73.4 °F - 64.4 °F 73% 30.13 in 10.0 mi North 3.5 mph - N/A Thunderstorm Mostly Cloudy
5:56 PM 71.6 °F - 69.8 °F 94% 30.12 in 10.0 mi NW 4.6 mph - N/A Thunderstorm Mostly Cloudy
6:04 PM 71.6 °F - 68.0 °F 88% 30.12 in 10.0 mi NW 4.6 mph - N/A Rain , Thunderstorm Light Rain Showers
6:28 PM 69.8 °F - 66.2 °F 88% 30.12 in 10.0 mi NW 10.4 mph - N/A   Mostly Cloudy
6:56 PM 68.0 °F - 62.6 °F 83% 30.12 in 10.0 mi NW 3.5 mph - N/A   Mostly Cloudy
7:56 PM 66.2 °F - 64.4 °F 94% 30.13 in 10.0 mi West 5.8 mph - N/A   Mostly Cloudy
8:56 PM 62.6 °F - 62.6 °F 100% 30.13 in 10.0 mi West 3.5 mph - N/A   Mostly Cloudy
9:56 PM 60.8 °F - 60.8 °F 100% 30.14 in 10.0 mi Calm Calm - N/A   Scattered Clouds
10:56 PM 59.0 °F - 59.0 °F 100% 30.14 in 10.0 mi Calm Calm - N/A   Scattered Clouds
11:56 PM 58.8 °F - 58.8 °F 100% 30.14 in 10.0 mi Calm Calm - N/A   Partly Cloudy